Time,TemperatureF,DewpointF,PressureIn,WindDirection,WindDirectionDegrees,WindSpeedMPH,WindSpeedGustMPH,Humidity,HourlyPrecipIn,Conditions,Clouds,dailyrainin,SoftwareType,DateUTC
2013-01-20 00:04:00,42.0,30.0,-100.00,WNW,300,21.0,21.0,61,-99.99,,,-99.99,,2013-01-20 05:04:00,
2013-01-20 00:12:00,42.0,30.0,-100.00,WNW,300,21.0,21.0,63,-99.99,,,-99.99,,2013-01-20 05:12:00,
2013-01-20 00:23:00,42.0,30.0,-100.00,WNW,300,21.0,21.0,63,-99.99,,,-99.99,,2013-01-20 05:23:00,
2013-01-20 00:33:00,42.0,31.0,-100.00,WNW,300,21.0,21.0,65,-99.99,,,-99.99,,2013-01-20 05:33:00,
2013-01-20 00:43:00,42.0,31.0,-100.00,WNW,300,21.0,21.0,65,-99.99,,,-99.99,,2013-01-20 05:43:00,
2013-01-20 00:53:00,41.0,31.0,-100.00,WNW,300,21.0,21.0,66,-99.99,,,-99.99,,2013-01-20 05:53:00,
2013-01-20 01:02:00,41.0,30.0,-100.00,WNW,300,21.0,21.0,65,-99.99,,,-99.99,,2013-01-20 06:02:00,
2013-01-20 01:12:00,41.0,31.0,-100.00,WNW,300,21.0,21.0,66,-99.99,,,-99.99,,2013-01-20 06:12:00,
2013-01-20 01:22:00,41.0,30.0,-100.00,WNW,300,21.0,21.0,66,-99.99,,,-99.99,,2013-01-20 06:22:00,
2013-01-20 01:33:00,41.0,30.0,-100.00,WNW,300,21.0,21.0,66,-99.99,,,-99.99,,2013-01-20 06:33:00,
2013-01-20 01:43:00,41.0,30.0,-100.00,WNW,300,21.0,21.0,64,-99.99,,,-99.99,,2013-01-20 06:43:00,
2013-01-20 01:52:00,41.0,30.0,-100.00,WNW,300,21.0,21.0,65,-99.99,,,-99.99,,2013-01-20 06:52:00,
2013-01-20 02:02:00,41.0,30.0,-100.00,WNW,300,21.0,21.0,65,-99.99,,,-99.99,,2013-01-20 07:02:00,
2013-01-20 02:12:00,41.0,30.0,-100.00,WNW,300,21.0,21.0,65,-99.99,,,-99.99,,2013-01-20 07:12:00,
2013-01-20 02:22:00,41.0,30.0,-100.00,WNW,300,21.0,21.0,65,-99.99,,,-99.99,,2013-01-20 07:22:00,
2013-01-20 02:32:00,41.0,30.0,-100.00,WNW,300,21.0,21.0,65,-99.99,,,-99.99,,2013-01-20 07:32:00,
2013-01-20 02:42:00,41.0,30.0,-100.00,WNW,300,21.0,21.0,66,-99.99,,,-99.99,,2013-01-20 07:42:00,
2013-01-20 02:52:00,41.0,30.0,-100.00,WNW,300,21.0,21.0,65,-99.99,,,-99.99,,2013-01-20 07:52:00,
2013-01-20 03:02:00,40.0,30.0,-100.00,WNW,300,21.0,21.0,67,-99.99,,,-99.99,,2013-01-20 08:02:00,
2013-01-20 03:12:00,40.0,30.0,-100.00,WNW,300,21.0,21.0,67,-99.99,,,-99.99,,2013-01-20 08:12:00,
2013-01-20 03:22:00,40.0,30.0,-100.00,WNW,300,21.0,21.0,67,-99.99,,,-99.99,,2013-01-20 08:22:00,
2013-01-20 03:32:00,41.0,30.0,-100.00,WNW,300,21.0,21.0,65,-99.99,,,-99.99,,2013-01-20 08:32:00,
2013-01-20 03:42:00,41.0,30.0,-100.00,WNW,300,21.0,21.0,65,-99.99,,,-99.99,,2013-01-20 08:42:00,
2013-01-20 03:52:00,41.0,30.0,-100.00,WNW,300,21.0,21.0,65,-99.99,,,-99.99,,2013-01-20 08:52:00,
2013-01-20 04:02:00,41.0,29.0,-100.00,WNW,300,21.0,21.0,63,-99.99,,,-99.99,,2013-01-20 09:02:00,
2013-01-20 04:12:00,41.0,30.0,-100.00,WNW,300,21.0,21.0,64,-99.99,,,-99.99,,2013-01-20 09:12:00,
2013-01-20 04:22:00,41.0,30.0,-100.00,WNW,300,21.0,21.0,64,-99.99,,,-99.99,,2013-01-20 09:22:00,
2013-01-20 04:33:00,41.0,29.0,-100.00,WNW,300,21.0,21.0,63,-99.99,,,-99.99,,2013-01-20 09:33:00,
2013-01-20 04:42:00,42.0,29.0,-100.00,WNW,300,21.0,21.0,61,-99.99,,,-99.99,,2013-01-20 09:42:00,
2013-01-20 04:52:00,41.0,30.0,-100.00,WNW,300,21.0,21.0,64,-99.99,,,-99.99,,2013-01-20 09:52:00,
2013-01-20 05:02:00,41.0,30.0,-100.00,WNW,300,21.0,21.0,63,-99.99,,,-99.99,,2013-01-20 10:02:00,
2013-01-20 05:12:00,42.0,30.0,-100.00,WNW,300,21.0,21.0,63,-99.99,,,-99.99,,2013-01-20 10:12:00,
2013-01-20 05:23:00,42.0,30.0,-100.00,WNW,300,21.0,21.0,63,-99.99,,,-99.99,,2013-01-20 10:23:00,
2013-01-20 05:32:00,41.0,30.0,-100.00,WNW,300,21.0,21.0,64,-99.99,,,-99.99,,2013-01-20 10:32:00,
2013-01-20 05:42:00,41.0,30.0,-100.00,WNW,300,21.0,21.0,64,-99.99,,,-99.99,,2013-01-20 10:42:00,
2013-01-20 05:53:00,41.0,30.0,-100.00,WNW,300,21.0,21.0,64,-99.99,,,-99.99,,2013-01-20 10:53:00,
2013-01-20 06:03:00,41.0,30.0,-100.00,WNW,300,21.0,21.0,65,-99.99,,,-99.99,,2013-01-20 11:03:00,
2013-01-20 06:12:00,41.0,30.0,-100.00,WNW,300,21.0,21.0,65,-99.99,,,-99.99,,2013-01-20 11:12:00,
2013-01-20 06:22:00,41.0,30.0,-100.00,WNW,300,21.0,21.0,66,-99.99,,,-99.99,,2013-01-20 11:22:00,
2013-01-20 06:33:00,40.0,30.0,-100.00,WNW,300,21.0,21.0,68,-99.99,,,-99.99,,2013-01-20 11:33:00,
2013-01-20 06:43:00,40.0,30.0,-100.00,WNW,300,21.0,21.0,68,-99.99,,,-99.99,,2013-01-20 11:43:00,
2013-01-20 06:53:00,40.0,30.0,-100.00,WNW,300,21.0,21.0,68,-99.99,,,-99.99,,2013-01-20 11:53:00,
2013-01-20 07:03:00,40.0,30.0,-100.00,WNW,300,21.0,21.0,67,-99.99,,,-99.99,,2013-01-20 12:03:00,
2013-01-20 07:13:00,39.0,30.0,-100.00,WNW,300,21.0,21.0,70,-99.99,,,-99.99,,2013-01-20 12:13:00,
2013-01-20 07:23:00,39.0,30.0,-100.00,WNW,300,21.0,21.0,69,-99.99,,,-99.99,,2013-01-20 12:23:00,
2013-01-20 07:33:00,40.0,30.0,-100.00,WNW,300,21.0,21.0,69,-99.99,,,-99.99,,2013-01-20 12:33:00,
2013-01-20 07:43:00,39.0,30.0,-100.00,WNW,300,21.0,21.0,69,-99.99,,,-99.99,,2013-01-20 12:43:00,
2013-01-20 07:53:00,40.0,30.0,-100.00,WNW,300,21.0,21.0,69,-99.99,,,-99.99,,2013-01-20 12:53:00,
2013-01-20 08:03:00,39.0,30.0,-100.00,WNW,300,21.0,21.0,69,-99.99,,,-99.99,,2013-01-20 13:03:00,
2013-01-20 08:12:00,40.0,30.0,-100.00,WNW,300,21.0,21.0,69,-99.99,,,-99.99,,2013-01-20 13:12:00,
2013-01-20 08:23:00,40.0,30.0,-100.00,WNW,300,21.0,21.0,67,-99.99,,,-99.99,,2013-01-20 13:23:00,
2013-01-20 08:33:00,42.0,30.0,-100.00,WNW,300,21.0,21.0,62,-99.99,,,-99.99,,2013-01-20 13:33:00,
2013-01-20 08:43:00,42.0,30.0,-100.00,WNW,300,21.0,21.0,63,-99.99,,,-99.99,,2013-01-20 13:43:00,
2013-01-20 08:52:00,42.0,31.0,-100.00,WNW,300,21.0,21.0,63,-99.99,,,-99.99,,2013-01-20 13:52:00,
2013-01-20 09:03:00,43.0,31.0,-100.00,WNW,300,21.0,21.0,63,-99.99,,,-99.99,,2013-01-20 14:03:00,
2013-01-20 09:12:00,43.0,31.0,-100.00,NW,320,14.0,21.0,62,-99.99,,,-99.99,,2013-01-20 14:12:00,
2013-01-20 09:23:00,45.0,31.0,-100.00,WNW,295,18.0,27.0,59,-99.99,,,-99.99,,2013-01-20 14:23:00,
2013-01-20 09:33:00,45.0,30.0,-100.00,WNW,285,15.0,28.0,56,-99.99,,,-99.99,,2013-01-20 14:33:00,
2013-01-20 09:43:00,47.0,30.0,-100.00,NW,320,13.0,26.0,53,-99.99,,,-99.99,,2013-01-20 14:43:00,
2013-01-20 09:53:00,48.0,31.0,-100.00,NW,320,13.0,26.0,51,-99.99,,,-99.99,,2013-01-20 14:53:00,
2013-01-20 10:04:00,49.0,31.0,-100.00,WNW,295,14.0,33.0,49,-99.99,,,-99.99,,2013-01-20 15:04:00,
2013-01-20 10:13:00,51.0,32.0,-100.00,WNW,300,13.0,27.0,48,-99.99,,,-99.99,,2013-01-20 15:13:00,
2013-01-20 10:23:00,51.0,31.0,-100.00,SW,235,13.0,24.0,46,-99.99,,,-99.99,,2013-01-20 15:23:00,
2013-01-20 10:33:00,52.0,31.0,-100.00,WNW,300,14.0,37.0,44,-99.99,,,-99.99,,2013-01-20 15:33:00,
2013-01-20 10:43:00,53.0,31.0,-100.00,SW,230,14.0,33.0,43,-99.99,,,-99.99,,2013-01-20 15:43:00,
2013-01-20 10:53:00,54.0,31.0,-100.00,SW,235,11.0,26.0,42,-99.99,,,-99.99,,2013-01-20 15:53:00,
2013-01-20 11:03:00,54.0,32.0,-100.00,SW,235,11.0,30.0,44,-99.99,,,-99.99,,2013-01-20 16:03:00,
2013-01-20 11:12:00,54.0,32.0,-100.00,SW,235,14.0,53.0,43,-99.99,,,-99.99,,2013-01-20 16:12:00,
2013-01-20 11:23:00,54.0,31.0,-100.00,SW,235,11.0,26.0,41,-99.99,,,-99.99,,2013-01-20 16:23:00,
2013-01-20 11:33:00,55.0,31.0,-100.00,WNW,290,9.0,21.0,40,-99.99,,,-99.99,,2013-01-20 16:33:00,
2013-01-20 11:43:00,56.0,32.0,-100.00,West,265,8.0,34.0,40,-99.99,,,-99.99,,2013-01-20 16:43:00,
2013-01-20 11:52:00,56.0,33.0,-100.00,SW,230,9.0,34.0,41,-99.99,,,-99.99,,2013-01-20 16:52:00,
2013-01-20 12:03:00,55.0,31.0,-100.00,WSW,240,11.0,40.0,40,-99.99,,,-99.99,,2013-01-20 17:03:00,
2013-01-20 12:13:00,55.0,31.0,-100.00,West,280,13.0,34.0,40,-99.99,,,-99.99,,2013-01-20 17:13:00,
2013-01-20 12:23:00,56.0,33.0,-100.00,SW,235,11.0,21.0,41,-99.99,,,-99.99,,2013-01-20 17:23:00,
2013-01-20 12:33:00,56.0,34.0,-100.00,SW,235,9.0,34.0,43,-99.99,,,-99.99,,2013-01-20 17:33:00,
2013-01-20 12:43:00,56.0,33.0,-100.00,SW,235,11.0,22.0,42,-99.99,,,-99.99,,2013-01-20 17:43:00,
2013-01-20 12:52:00,56.0,32.0,-100.00,SW,235,11.0,21.0,40,-99.99,,,-99.99,,2013-01-20 17:52:00,
2013-01-20 13:03:00,56.0,32.0,-100.00,WSW,240,11.0,26.0,40,-99.99,,,-99.99,,2013-01-20 18:03:00,
2013-01-20 13:13:00,56.0,33.0,-100.00,SW,235,11.0,32.0,41,-99.99,,,-99.99,,2013-01-20 18:13:00,
2013-01-20 13:23:00,56.0,32.0,-100.00,SW,230,11.0,54.0,40,-99.99,,,-99.99,,2013-01-20 18:23:00,
2013-01-20 13:33:00,56.0,34.0,-100.00,SW,230,10.0,22.0,42,-99.99,,,-99.99,,2013-01-20 18:33:00,
2013-01-20 13:43:00,57.0,32.0,-100.00,SW,235,12.0,22.0,39,-99.99,,,-99.99,,2013-01-20 18:43:00,
2013-01-20 13:53:00,56.0,33.0,-100.00,WSW,245,17.0,67.0,41,-99.99,,,-99.99,,2013-01-20 18:53:00,
2013-01-20 14:03:00,57.0,31.0,-100.00,SW,235,13.0,26.0,37,-99.99,,,-99.99,,2013-01-20 19:03:00,
2013-01-20 14:12:00,57.0,30.0,-100.00,SW,235,12.0,30.0,36,-99.99,,,-99.99,,2013-01-20 19:12:00,
2013-01-20 14:23:00,58.0,32.0,-100.00,West,275,10.0,26.0,38,-99.99,,,-99.99,,2013-01-20 19:23:00,
2013-01-20 14:33:00,57.0,31.0,-100.00,West,275,15.0,56.0,36,-99.99,,,-99.99,,2013-01-20 19:33:00,
2013-01-20 14:43:00,57.0,31.0,-100.00,WSW,245,10.0,37.0,37,-99.99,,,-99.99,,2013-01-20 19:43:00,
2013-01-20 14:52:00,58.0,30.0,-100.00,WNW,295,11.0,27.0,35,-99.99,,,-99.99,,2013-01-20 19:52:00,
2013-01-20 15:03:00,58.0,30.0,-100.00,West,280,13.0,26.0,35,-99.99,,,-99.99,,2013-01-20 20:03:00,
2013-01-20 15:12:00,58.0,30.0,-100.00,West,280,12.0,24.0,34,-99.99,,,-99.99,,2013-01-20 20:12:00,
2013-01-20 15:23:00,58.0,30.0,-100.00,WNW,285,14.0,25.0,35,-99.99,,,-99.99,,2013-01-20 20:23:00,
2013-01-20 15:33:00,58.0,30.0,-100.00,SW,230,11.0,34.0,34,-99.99,,,-99.99,,2013-01-20 20:33:00,
2013-01-20 15:42:00,58.0,29.0,-100.00,West,280,11.0,25.0,34,-99.99,,,-99.99,,2013-01-20 20:42:00,
2013-01-20 15:53:00,58.0,30.0,-100.00,West,275,12.0,25.0,35,-99.99,,,-99.99,,2013-01-20 20:53:00,
2013-01-20 16:04:00,57.0,29.0,-100.00,WNW,285,14.0,27.0,34,-99.99,,,-99.99,,2013-01-20 21:04:00,
2013-01-20 16:13:00,58.0,29.0,-100.00,WNW,285,11.0,31.0,34,-99.99,,,-99.99,,2013-01-20 21:13:00,
2013-01-20 16:23:00,57.0,26.0,-100.00,West,275,14.0,26.0,30,-99.99,,,-99.99,,2013-01-20 21:23:00,
2013-01-20 16:33:00,56.0,25.0,-100.00,WNW,285,15.0,32.0,29,-99.99,,,-99.99,,2013-01-20 21:33:00,
2013-01-20 16:43:00,56.0,25.0,-100.00,West,280,11.0,34.0,30,-99.99,,,-99.99,,2013-01-20 21:43:00,
2013-01-20 16:53:00,56.0,24.0,-100.00,WNW,285,13.0,32.0,29,-99.99,,,-99.99,,2013-01-20 21:53:00,
2013-01-20 17:03:00,55.0,24.0,-100.00,WNW,290,16.0,37.0,29,-99.99,,,-99.99,,2013-01-20 22:03:00,
2013-01-20 17:13:00,55.0,25.0,-100.00,West,280,10.0,36.0,32,-99.99,,,-99.99,,2013-01-20 22:13:00,
2013-01-20 17:23:00,54.0,23.0,-100.00,WNW,290,14.0,30.0,29,-99.99,,,-99.99,,2013-01-20 22:23:00,
2013-01-20 17:33:00,54.0,22.0,-100.00,WNW,290,11.0,30.0,29,-99.99,,,-99.99,,2013-01-20 22:33:00,
2013-01-20 17:43:00,53.0,24.0,-100.00,West,280,12.0,27.0,32,-99.99,,,-99.99,,2013-01-20 22:43:00,
2013-01-20 17:52:00,52.0,25.0,-100.00,WNW,285,14.0,24.0,35,-99.99,,,-99.99,,2013-01-20 22:52:00,
2013-01-20 18:03:00,52.0,25.0,-100.00,WNW,285,14.0,24.0,35,-99.99,,,-99.99,,2013-01-20 23:03:00,
2013-01-20 18:13:00,52.0,26.0,-100.00,WNW,285,14.0,37.0,36,-99.99,,,-99.99,,2013-01-20 23:13:00,
2013-01-20 18:23:00,52.0,24.0,-100.00,West,275,15.0,36.0,33,-99.99,,,-99.99,,2013-01-20 23:23:00,
2013-01-20 18:33:00,51.0,22.0,-100.00,WNW,285,14.0,27.0,32,-99.99,,,-99.99,,2013-01-20 23:33:00,
2013-01-20 18:43:00,50.0,20.0,-100.00,WNW,285,12.0,31.0,31,-99.99,,,-99.99,,2013-01-20 23:43:00,
2013-01-20 18:53:00,49.0,19.0,-100.00,WNW,285,15.0,26.0,30,-99.99,,,-99.99,,2013-01-20 23:53:00,
2013-01-20 19:03:00,49.0,21.0,-100.00,NW,310,18.0,34.0,33,-99.99,,,-99.99,,2013-01-21 00:03:00,
2013-01-20 19:13:00,48.0,19.0,-100.00,West,280,18.0,27.0,32,-99.99,,,-99.99,,2013-01-21 00:13:00,
2013-01-20 19:23:00,47.0,19.0,-100.00,WNW,300,16.0,21.0,32,-99.99,,,-99.99,,2013-01-21 00:23:00,
2013-01-20 19:33:00,47.0,18.0,-100.00,WNW,285,17.0,17.0,32,-99.99,,,-99.99,,2013-01-21 00:33:00,
2013-01-20 19:43:00,46.0,19.0,-100.00,West,275,14.0,21.0,34,-99.99,,,-99.99,,2013-01-21 00:43:00,
2013-01-20 19:53:00,46.0,19.0,-100.00,West,275,14.0,21.0,34,-99.99,,,-99.99,,2013-01-21 00:53:00,
2013-01-20 20:03:00,46.0,19.0,-100.00,West,275,14.0,14.0,34,-99.99,,,-99.99,,2013-01-21 01:03:00,
2013-01-20 20:13:00,44.0,17.0,-100.00,West,275,14.0,14.0,33,-99.99,,,-99.99,,2013-01-21 01:13:00,
2013-01-20 20:23:00,44.0,17.0,-100.00,West,275,14.0,14.0,33,-99.99,,,-99.99,,2013-01-21 01:23:00,
2013-01-20 20:33:00,44.0,19.0,-100.00,West,275,14.0,14.0,36,-99.99,,,-99.99,,2013-01-21 01:33:00,
2013-01-20 20:43:00,44.0,16.0,-100.00,West,275,14.0,14.0,32,-99.99,,,-99.99,,2013-01-21 01:43:00,
2013-01-20 20:53:00,43.0,16.0,-100.00,West,275,14.0,14.0,33,-99.99,,,-99.99,,2013-01-21 01:53:00,
2013-01-20 21:03:00,43.0,16.0,-100.00,West,275,14.0,14.0,33,-99.99,,,-99.99,,2013-01-21 02:03:00,
2013-01-20 21:13:00,42.0,16.0,-100.00,West,275,14.0,14.0,34,-99.99,,,-99.99,,2013-01-21 02:13:00,
2013-01-20 21:23:00,42.0,17.0,-100.00,West,275,14.0,14.0,36,-99.99,,,-99.99,,2013-01-21 02:23:00,
2013-01-20 21:33:00,42.0,16.0,-100.00,West,275,14.0,14.0,35,-99.99,,,-99.99,,2013-01-21 02:33:00,
2013-01-20 21:43:00,41.0,16.0,-100.00,West,275,14.0,14.0,36,-99.99,,,-99.99,,2013-01-21 02:43:00,
2013-01-20 21:53:00,41.0,17.0,-100.00,West,275,14.0,14.0,38,-99.99,,,-99.99,,2013-01-21 02:53:00,
2013-01-20 22:03:00,41.0,16.0,-100.00,West,275,14.0,14.0,36,-99.99,,,-99.99,,2013-01-21 03:03:00,
2013-01-20 22:13:00,40.0,16.0,-100.00,West,275,14.0,14.0,37,-99.99,,,-99.99,,2013-01-21 03:13:00,
2013-01-20 22:23:00,39.0,17.0,-100.00,West,275,14.0,14.0,40,-99.99,,,-99.99,,2013-01-21 03:23:00,
2013-01-20 22:33:00,39.0,18.0,-100.00,West,275,14.0,14.0,42,-99.99,,,-99.99,,2013-01-21 03:33:00,
2013-01-20 22:43:00,39.0,16.0,-100.00,West,275,14.0,14.0,40,-99.99,,,-99.99,,2013-01-21 03:43:00,
2013-01-20 22:53:00,39.0,18.0,-100.00,West,275,14.0,14.0,42,-99.99,,,-99.99,,2013-01-21 03:53:00,
2013-01-20 23:03:00,39.0,18.0,-100.00,West,275,14.0,14.0,42,-99.99,,,-99.99,,2013-01-21 04:03:00,
2013-01-20 23:13:00,38.0,17.0,-100.00,West,275,14.0,14.0,43,-99.99,,,-99.99,,2013-01-21 04:13:00,
2013-01-20 23:23:00,38.0,17.0,-100.00,West,275,14.0,14.0,43,-99.99,,,-99.99,,2013-01-21 04:23:00,
2013-01-20 23:33:00,37.0,19.0,-100.00,West,275,14.0,14.0,47,-99.99,,,-99.99,,2013-01-21 04:33:00,
2013-01-20 23:43:00,37.0,19.0,-100.00,West,275,14.0,14.0,47,-99.99,,,-99.99,,2013-01-21 04:43:00,
2013-01-20 23:53:00,37.0,20.0,-100.00,West,275,14.0,14.0,50,-99.99,,,-99.99,,2013-01-21 04:53:00,